Location: Caltech
(34.1382°N, 118.1253°W)
Time: 10:14:55
(UTC-07:00)

Meteor 2-4 Rocket - Visible Passes

Search period start: 17 August 2017 00:00
Search period end: 27 August 2017 00:00
Orbit: 798 x 909 km, 81.2° (Epoch: 16 August)

Date Brightness Start Highest point End Pass type
(mag) Time Alt. Az. Time Alt. Az. Time Alt. Az.
17 Aug 5.6 20:01:28 10° NE 20:03:29 12° ENE 20:05:32 10° E visible
17 Aug 3.8 21:41:25 10° NNW 21:46:57 72° W 21:48:53 42° SSW visible
18 Aug 3.8 21:30:22 10° NNW 21:35:56 77° W 21:38:26 35° S visible
19 Aug 3.7 21:19:20 10° N 21:24:55 83° W 21:28:02 28° S visible
20 Aug 3.7 21:08:17 10° N 21:13:54 88° WSW 21:17:42 22° S visible
21 Aug 3.7 20:57:15 10° N 21:02:52 86° E 21:07:27 17° S visible
22 Aug 3.7 20:46:12 10° N 20:51:51 81° E 20:57:17 12° S visible
23 Aug 3.7 20:35:10 10° N 20:40:49 75° E 20:46:36 10° SSE visible
23 Aug 6.5 22:21:44 10° WNW 22:23:04 11° W 22:24:26 10° W visible
24 Aug 3.7 20:24:09 10° N 20:29:48 70° E 20:35:34 10° SSE visible
24 Aug 6.5 22:10:05 10° WNW 22:12:05 12° W 22:14:07 10° WSW visible
25 Aug 3.8 20:13:07 10° N 20:18:46 66° E 20:24:31 10° SSE visible
25 Aug 6.5 21:58:38 10° WNW 22:01:07 13° W 22:03:37 10° WSW visible
26 Aug 3.8 20:02:06 10° N 20:07:44 61° E 20:13:29 10° SSE visible
26 Aug 6.5 21:47:16 10° NW 21:50:08 14° W 21:53:01 10° WSW visible
